Location: Cabeza de los Veneras
(40.2000°N, 5.2000°W)
Time: 11:45:47
(UTC+00:00)

Cosmos 2219 - Pass Details

Date: 18 April 2024
Orbit: 834 x 858 km, 71.1° (Epoch: 26 May)

Event Time Altitude Azimuth Distance (km) Brightness Sun altitude
Rises 22:29:56 0° 337° (NNW) 3,406 7.4 -32.6°
Reaches altitude 10° 22:32:24 10° 338° (NNW) 2,464 6.4 -32.8°
Enters shadow 22:36:26 48° 344° (NNW) 1,083 4.0 -33.2°
